Regional Weather Roundup
Issued by NWS Green Bay, WI

Home | Current Version | Previous Version | Graphics & Text | Print | Product List | Glossary Off
Versions: 1 2 3 4 5 6 7 8 9 10 11 12 13 14 15 16 17 18 19 20 21 22 23 24 25 26 27 28 29 30 31 32 33 34 35 36 37 38 39 40 41 42 43 44 45 46 47 48 49 50

000
ASUS43 KGRB 271559
RWRGRB

NORTH-CENTRAL AND NORTHEAST WISCONSIN REGIONAL WEATHER ROUNDUP
NATIONAL WEATHER SERVICE GREEN BAY WI
1100 AM CDT FRI MAR 27 2015

WIZ005-009-010>012-018-019-271700-
NORTH CENTRAL WISCONSIN

CITY           SKY/WX    TMP DP  RH WIND       PRES   REMARKS
IRONWOOD       SUNNY     19   9  63 N9        30.21S WCI   9
MANITOWISH WTR NOT AVBL
ARBOR VITAE    NOT AVBL
EAGLE RIVER    NOT AVBL
LAND O LAKES   NOT AVBL
RHINELANDER    SUNNY     17   3  54 NE7       30.19S WCI   8
PHILLIPS       NOT AVBL
ANTIGO         NOT AVBL
TOMAHAWK       NOT AVBL
MERRILL        NOT AVBL
$$

WIZ013-073-271700-
NORTHEAST WISCONSIN

CITY           SKY/WX    TMP DP  RH WIND       PRES   REMARKS
IRON MOUNTAIN  SUNNY     17   1  49 N13       30.20S WCI   4
MARINETTE      MOSUNNY   19   5  53 N14       30.23S WCI   6
$$

WIZ017-030-035>037-045-271700-
CENTRAL WISCONSIN

CITY           SKY/WX    TMP DP  RH WIND       PRES   REMARKS
MEDFORD        NOT AVBL
WAUSAU         MOSUNNY   21   7  54 N8        30.20F
MOSINEE        MOSUNNY   19   9  63 NW9       30.22F WCI   9
MARSHFIELD     PTSUNNY   24   9  52 N9        30.21F
WISC RAPIDS    MOSUNNY   25   7  46 N9        30.24F
STEVENS POINT  NOT AVBL
WAUPACA        NOT AVBL
SHAWANO        NOT AVBL
CLINTONVILLE   NOT AVBL
$$

WIZ038-039-048-051-271700-
FOX VALLEY

CITY           SKY/WX    TMP DP  RH WIND       PRES   REMARKS
NWS GREEN BAY  PTSUNNY   23   8  52 N14       30.23S
APPLETON       PTSUNNY   23   3  42 N18       30.22S WCI   9
OSHKOSH        MOSUNNY   24   5  44 N15G24    30.21F
FOND DU LAC    MOSUNNY   25   7  46 NE14G25   30.23R
$$

WIZ022-050-052-271700-
EAST CENTRAL WISCONSIN

CITY           SKY/WX    TMP DP  RH WIND       PRES   REMARKS
STURGEON BAY   MOSUNNY   18   7  62 N16G22    30.24S WCI   3
MANITOWOC      NOT AVBL
SHEBOYGAN      PTSUNNY   22   6  50 N14       30.19S WCI   9
$$

LMZ563-521-522-541>543-271700-
LAKESHORE

STATION/POSITION TIME  TEMP    WIND        PRES    VSBY  WAVE
                       AIR SEA DIR/SP/G                  HT/PER
                 (UTC) (F)     (DEG/KT/KT) (MB)    (MI)  (FT/S)
SHEBOYGAN LKSHOR 1500   20     350/ 19/ 21 1023.9R
KEWAUNEE LKSHORE 1500   20      10/ 12/ 17 1022.3R
NORTHPORT PIER   1500   15     340/ 19     1024.0R
CHAMBERS ISLAND  1500   19     330/ 12/ 16 1024.0R
MENOMINEE LKSHOR 1500   18     340/ 12     1024.3S
$$



USA.gov is the U.S. government's official web portal to all federal, state and local government web resources and services.